KG5MMT-15 Weather Reports


time (UTC)temp
C
wind
direction
speed
KPH
gust
KPH
rain 1hr
cm
rain 24hr
cm
rain mn
cm
humidity
%
barometer
mb
20260507201712 18 64 9.7 24.1 0.00 0.00 0.00 21
20260507201212 18 74 22.5 29.0 0.00 0.00 0.00 21
20260507200712 18 73 8.0 27.4 0.00 0.00 0.00 22
20260507200212 18 90 16.1 24.1 0.00 0.00 0.00 22
20260507195712 18 113 16.1 20.9 0.00 0.00 0.00 21
20260507195212 18 151 11.3 25.7 0.00 0.00 0.00 21
20260507194712 18 105 8.0 20.9 0.00 0.00 0.00 22
20260507194212 18 126 9.7 27.4 0.00 0.00 0.00 23
20260507193712 18 77 22.5 22.5 0.00 0.00 0.00 22
20260507193212 18 125 22.5 29.0 0.00 0.00 0.00 22
20260507192712 17 87 17.7 33.8 0.00 0.00 0.00 23
20260507192212 17 125 11.3 25.7 0.00 0.00 0.00 23
20260507191712 17 115 11.3 24.1 0.00 0.00 0.00 22
20260507191212 17 77 8.0 19.3 0.00 0.00 0.00 22
20260507190712 17 140 8.0 19.3 0.00 0.00 0.00 22
20260507190212 16 115 14.5 17.7 0.00 0.00 0.00 24
20260507185712 16 101 11.3 25.7 0.00 0.00 0.00 24
20260507185212 16 106 1.6 19.3 0.00 0.00 0.00 25
20260507184712 17 84 4.8 16.1 0.00 0.00 0.00 25
20260507184212 17 116 9.7 12.9 0.00 0.00 0.00 27
20260507183712 16 49 6.4 17.7 0.00 0.00 0.00 29
20260507183212 16 105 11.3 20.9 0.00 0.00 0.00 30
20260507182712 17 165 9.7 19.3 0.00 0.00 0.00 29
20260507182212 16 140 3.2 14.5 0.00 0.00 0.00 29
20260507181712 16 135 6.4 22.5 0.00 0.00 0.00 29
20260507181212 16 139 22.5 22.5 0.00 0.00 0.00 29
20260507180712 16 120 8.0 20.9 0.00 0.00 0.00 28
20260507180212 16 126 1.6 14.5 0.00 0.00 0.00 29
20260507175712 15 122 6.4 11.3 0.00 0.00 0.00 30
20260507175212 15 5 0.0 19.3 0.00 0.00 0.00 30
20260507174712 15 164 9.7 19.3 0.00 0.00 0.00 29
20260507174212 15 70 8.0 12.9 0.00 0.00 0.00 29
20260507173712 15 203 3.2 14.5 0.00 0.00 0.00 30
20260507173212 15 120 11.3 16.1 0.00 0.00 0.00 31
20260507172712 15 146 12.9 16.1 0.00 0.00 0.00 30
20260507172212 14 115 16.1 19.3 0.00 0.00 0.00 31
20260507171712 14 142 8.0 22.5 0.00 0.00 0.00 31
20260507171212 14 64 1.6 16.1 0.00 0.00 0.00 29
20260507170712 13 153 4.8 22.5 0.00 0.00 0.00 30
20260507170212 13 81 6.4 14.5 0.00 0.00 0.00 31
20260507165712 13 125 8.0 16.1 0.00 0.00 0.00 32
20260507165212 13 127 4.8 17.7 0.00 0.00 0.00 31
20260507164712 14 25 1.6 12.9 0.00 0.00 0.00 30
20260507164212 13 142 6.4 12.9 0.00 0.00 0.00 27
20260507163712 12 108 11.3 16.1 0.00 0.00 0.00 25
20260507163212 13 135 8.0 19.3 0.00 0.00 0.00 25
20260507162712 13 74 3.2 11.3 0.00 0.00 0.00 27
20260507162212 13 108 8.0 14.5 0.00 0.00 0.00 28
20260507161712 13 90 9.7 12.9 0.00 0.00 0.00 29
20260507161212 12 104 8.0 11.3 0.00 0.00 0.00 31
20260507160712 12 120 6.4 14.5 0.00 0.00 0.00 29
20260507160212 12 161 0.0 11.3 0.00 0.00 0.00 31
20260507155712 12 250 0.0 12.9 0.00 0.00 0.00 31
20260507155212 11 123 6.4 8.0 0.00 0.00 0.00 37
20260507154712 11 16 0.0 11.3 0.00 0.00 0.00 39
20260507154212 11 113 11.3 16.1 0.00 0.00 0.00 40
20260507153712 10 101 6.4 14.5 0.00 0.00 0.00 37
20260507153212 10 105 1.6 9.7 0.00 0.00 0.00 45
20260507152712 10 140 8.0 16.1 0.00 0.00 0.00 45
20260507152212 10 174 6.4 14.5 0.00 0.00 0.00 46
20260507151712 10 137 4.8 14.5 0.00 0.00 0.00 46
20260507151212 10 29 4.8 12.9 0.00 0.00 0.00 49
20260507150712 9 142 4.8 12.9 0.00 0.00 0.00 47
20260507150212 9 177 4.8 12.9 0.00 0.00 0.00 49
20260507145712 9 184 8.0 16.1 0.00 0.00 0.00 49
20260507145212 9 112 9.7 11.3 0.00 0.00 0.00 48
20260507144712 9 132 6.4 12.9 0.00 0.00 0.00 47
20260507144212 9 115 4.8 12.9 0.00 0.00 0.00 49
20260507143712 9 78 9.7 9.7 0.00 0.00 0.00 51
20260507143212 9 109 8.0 11.3 0.00 0.00 0.00 50
20260507142712 8 88 6.4 9.7 0.00 0.00 0.00 53
20260507142212 8 75 4.8 9.7 0.00 0.00 0.00 53
20260507141712 8 112 9.7 9.7 0.00 0.00 0.00 47
20260507141212 8 23 0.0 0.0 0.00 0.00 0.00 48
20260507140712 7 23 0.0 3.2 0.00 0.00 0.00 52
20260507140212 7 21 0.0 1.6 0.00 0.00 0.00 56
20260507135712 6 295 0.0 0.0 0.00 0.00 0.00 60
20260507135212 5 125 0.0 1.6 0.00 0.00 0.00 65
20260507134712 5 344 0.0 0.0 0.00 0.00 0.00 73
20260507134212 3 344 0.0 1.6 0.00 0.00 0.00 75
20260507133712 3 345 0.0 1.6 0.00 0.00 0.00 79
20260507133212 2 4 0.0 3.2 0.00 0.00 0.00 81
20260507132712 2 338 3.2 3.2 0.00 0.00 0.00 83
20260507132212 1 341 1.6 4.8 0.00 0.00 0.00 86
20260507131712 1 337 3.2 4.8 0.00 0.00 0.00 89
20260507131212 0 336 1.6 3.2 0.00 0.00 0.00 92
20260507130712 0 315 0.0 0.0 0.00 0.00 0.00 94
20260507130212 0 315 0.0 0.0 0.00 0.00 0.00 95
20260507125712 0 315 0.0 0.0 0.00 0.00 0.00 95
20260507125212 -1 327 0.0 0.0 0.00 0.00 0.00 95
20260507124712 -1 327 0.0 3.2 0.00 0.00 0.00 95
20260507124212 -1 337 3.2 3.2 0.00 0.00 0.00 95
20260507123712 -1 327 1.6 3.2 0.00 0.00 0.00 96
20260507123212 -1 316 1.6 4.8 0.00 0.00 0.00 96
20260507122712 -1 336 3.2 3.2 0.00 0.00 0.00 95
20260507122212 -1 272 0.0 0.0 0.00 0.00 0.00 95
20260507121712 -1 272 0.0 0.0 0.00 0.00 0.00 96
20260507121212 -1 272 0.0 0.0 0.00 0.00 0.00 96
20260507120712 -1 272 0.0 0.0 0.00 0.00 0.00 96
20260507120212 -1 272 0.0 0.0 0.00 0.00 0.00 96
20260507115713 -1 272 0.0 0.0 0.00 0.00 0.00 96
20260507115213 -1 272 0.0 0.0 0.00 0.00 0.00 96
20260507114712 -1 272 0.0 0.0 0.00 0.00 0.00 96
20260507114213 -1 272 0.0 3.2 0.00 0.00 0.00 96
20260507113713 -1 285 1.6 4.8 0.00 0.00 0.00 96
20260507113213 -1 279 0.0 0.0 0.00 0.00 0.00 96
20260507112713 -1 279 0.0 0.0 0.00 0.00 0.00 96
20260507112213 -1 279 0.0 0.0 0.00 0.00 0.00 96
20260507111713 -1 279 0.0 0.0 0.00 0.00 0.00 96
20260507111213 -1 279 0.0 0.0 0.00 0.00 0.00 96
20260507110713 -1 279 0.0 0.0 0.00 0.00 0.00 96
20260507110213 -1 279 0.0 0.0 0.00 0.00 0.00 96
20260507105713 -1 279 0.0 0.0 0.00 0.00 0.00 96
20260507105213 -1 279 0.0 0.0 0.00 0.00 0.00 96
20260507104713 -1 279 0.0 0.0 0.00 0.00 0.00 96
20260507104213 -1 279 0.0 0.0 0.00 0.00 0.00 96
20260507103713 -1 279 0.0 0.0 0.00 0.00 0.00 96
20260507103213 -1 279 0.0 0.0 0.00 0.00 0.00 96
20260507102713 -1 279 0.0 0.0 0.00 0.00 0.00 96
20260507102213 -1 279 0.0 0.0 0.00 0.00 0.00 96
20260507101713 -1 279 0.0 0.0 0.00 0.00 0.00 96
20260507101213 -1 279 0.0 0.0 0.00 0.00 0.00 96
20260507100713 -1 279 0.0 0.0 0.00 0.00 0.00 96
20260507100213 -1 279 0.0 0.0 0.00 0.00 0.00 96
20260507095713 -1 279 0.0 3.2 0.00 0.00 0.00 96
20260507095213 -1 267 0.0 4.8 0.00 0.00 0.00 96
20260507094713 -1 296 3.2 3.2 0.00 0.00 0.00 96
20260507094213 -1 330 0.0 0.0 0.00 0.00 0.00 95
20260507093713 -1 330 0.0 0.0 0.00 0.00 0.00 95
20260507093213 -1 330 0.0 0.0 0.00 0.00 0.00 95
20260507092713 0 330 0.0 0.0 0.00 0.00 0.00 95
20260507092213 0 330 0.0 0.0 0.00 0.00 0.00 95
20260507091713 0 330 0.0 0.0 0.00 0.00 0.00 95
20260507091213 0 330 0.0 0.0 0.00 0.00 0.00 95
20260507090713 0 330 0.0 0.0 0.00 0.00 0.00 95
20260507090213 0 330 0.0 0.0 0.00 0.00 0.00 95
20260507085713 0 330 0.0 0.0 0.00 0.00 0.00 95
20260507085213 0 330 0.0 1.6 0.00 0.00 0.00 95
20260507084713 0 324 1.6 3.2 0.00 0.00 0.00 95
20260507084213 0 274 0.0 0.0 0.00 0.00 0.00 96
20260507083713 0 274 0.0 0.0 0.00 0.00 0.00 96
20260507083213 0 274 0.0 0.0 0.00 0.00 0.00 95
20260507082713 0 274 0.0 0.0 0.00 0.00 0.00 95
20260507082213 0 274 0.0 0.0 0.00 0.00 0.00 95
20260507081713 0 274 0.0 0.0 0.00 0.00 0.00 95
20260507081213 0 274 0.0 0.0 0.00 0.00 0.00 95
20260507080713 0 274 0.0 0.0 0.00 0.00 0.00 95
20260507080213 0 274 0.0 0.0 0.00 0.00 0.00 95
20260507075713 0 274 0.0 0.0 0.00 0.00 0.00 94
20260507075213 0 274 0.0 0.0 0.00 0.00 0.00 94
20260507074713 1 274 0.0 0.0 0.00 0.00 0.00 94
20260507074213 1 274 0.0 0.0 0.00 0.00 0.00 94
20260507073713 1 274 0.0 0.0 0.00 0.00 0.00 93
20260507073213 1 274 0.0 0.0 0.00 0.00 0.00 92
20260507072713 1 274 0.0 0.0 0.00 0.00 0.00 92
20260507072213 1 274 0.0 0.0 0.00 0.00 0.00 92
20260507071713 1 274 0.0 0.0 0.00 0.00 0.00 92
20260507071213 2 274 0.0 0.0 0.00 0.00 0.00 92
20260507070713 2 274 0.0 0.0 0.00 0.00 0.00 91
20260507070213 2 274 0.0 0.0 0.00 0.00 0.00 89
20260507065713 2 274 0.0 0.0 0.00 0.00 0.00 89
20260507065213 3 274 0.0 0.0 0.00 0.00 0.00 87
20260507064713 3 274 0.0 0.0 0.00 0.00 0.00 87
20260507064213 3 274 0.0 0.0 0.00 0.00 0.00 87
20260507063713 3 274 0.0 3.2 0.00 0.00 0.00 88
20260507063213 3 127 0.0 0.0 0.00 0.00 0.00 87
20260507062713 3 127 0.0 0.0 0.00 0.00 0.00 87
20260507062213 3 198 0.0 0.0 0.00 0.00 0.00 87
20260507061713 3 198 0.0 0.0 0.00 0.00 0.00 87
20260507061213 3 198 0.0 1.6 0.00 0.00 0.00 87
20260507060713 3 226 1.6 1.6 0.00 0.00 0.00 88
20260507060213 3 292 0.0 3.2 0.00 0.00 0.00 87
20260507055713 3 289 0.0 1.6 0.00 0.00 0.00 88
20260507055213 3 230 0.0 1.6 0.00 0.00 0.00 88
20260507054713 3 16 0.0 0.0 0.00 0.00 0.00 88
20260507054213 3 16 0.0 0.0 0.00 0.00 0.00 88
20260507053713 3 16 0.0 1.6 0.00 0.00 0.00 89
20260507053213 3 336 0.0 0.0 0.00 0.00 0.00 89
20260507052713 3 347 0.0 3.2 0.00 0.00 0.00 90
20260507052213 3 149 0.0 0.0 0.00 0.00 0.00 90
20260507051713 3 149 0.0 0.0 0.00 0.00 0.00 90
20260507051213 3 149 0.0 0.0 0.00 0.00 0.00 91
20260507050713 3 149 0.0 1.6 0.00 0.00 0.00 91
20260507050213 3 149 1.6 4.8 0.00 0.00 0.00 91
20260507045713 3 25 0.0 0.0 0.00 0.00 0.00 90
20260507045213 3 25 0.0 3.2 0.00 0.00 0.00 90
20260507044713 3 344 0.0 6.4 0.00 0.00 0.00 89
20260507044213 3 28 1.6 6.4 0.00 0.00 0.00 88
20260507043713 3 7 0.0 4.8 0.00 0.00 0.00 88
20260507043213 3 81 0.0 4.8 0.00 0.00 0.00 88
20260507042713 3 286 0.0 1.6 0.00 0.00 0.00 88
20260507042213 3 7 0.0 8.0 0.00 0.00 0.00 88
20260507041713 3 87 0.0 0.0 0.00 0.00 0.00 88
20260507041213 3 87 0.0 9.7 0.00 0.00 0.00 88
20260507040713 3 105 6.4 9.7 0.00 0.00 0.00 89
20260507040213 3 68 3.2 3.2 0.00 0.00 0.00 88
20260507035713 3 125 3.2 3.2 0.00 0.00 0.00 89
20260507035213 3 23 1.6 3.2 0.00 0.00 0.00 88
20260507034713 3 337 1.6 6.4 0.00 0.00 0.00 89
20260507034213 3 341 0.0 8.0 0.00 0.00 0.00 88
20260507033713 3 60 0.0 14.5 0.00 0.00 0.00 88
20260507033213 3 345 0.0 8.0 0.00 0.00 0.00 88
20260507032713 3 341 3.2 8.0 0.00 0.00 0.00 89
20260507032213 3 8 1.6 11.3 0.00 0.00 0.00 89
20260507031713 4 343 4.8 9.7 0.00 0.00 0.00 88
20260507031213 3 337 8.0 11.3 0.00 0.00 0.00 88
20260507030713 4 59 1.6 11.3 0.00 0.00 0.00 88
20260507030213 4 32 3.2 4.8 0.00 0.00 0.00 87
20260507025713 4 237 0.0 0.0 0.00 0.00 0.00 87
20260507025213 4 237 0.0 0.0 0.00 0.03 0.00 86
20260507024713 4 237 0.0 3.2 0.00 0.03 0.00 87
20260507024213 4 32 3.2 4.8 0.00 0.03 0.00 87
20260507023713 4 21 0.0 3.2 0.00 0.03 0.00 87
20260507023213 4 302 0.0 6.4 0.00 0.03 0.00 87
20260507022713 4 358 3.2 11.3 0.00 0.03 0.00 87
20260507022213 5 26 1.6 9.7 0.00 0.03 0.00 87
20260507021713 5 42 3.2 16.1 0.00 0.03 0.00 86
20260507021213 5 5 9.7 14.5 0.00 0.03 0.00 86
20260507020713 5 341 1.6 8.0 0.00 0.03 0.00 84
20260507020213 5 329 3.2 6.4 0.00 0.03 0.00 85
20260507015713 5 195 0.0 9.7 0.00 0.03 0.00 85
20260507015214 5 108 4.8 6.4 0.00 0.03 0.00 84
20260507014714 5 226 1.6 8.0 0.00 0.03 0.00 84
20260507014214 5 2 3.2 4.8 0.00 0.03 0.00 83
20260507013713 5 327 0.0 6.4 0.00 0.03 0.00 82
20260507013214 5 8 0.0 4.8 0.00 0.03 0.00 82
20260507012714 5 5 0.0 6.4 0.00 0.03 0.00 83
20260507012214 5 320 1.6 4.8 0.00 0.03 0.00 83
20260507011714 5 348 4.8 8.0 0.00 0.03 0.00 83
20260507011214 5 14 6.4 12.9 0.00 0.03 0.00 82
20260507010714 5 310 1.6 6.4 0.00 0.03 0.00 83
20260507010214 5 243 0.0 3.2 0.00 0.03 0.00 84
20260507005714 6 158 3.2 14.5 0.00 0.03 0.00 83
20260507005214 6 140 9.7 14.5 0.00 0.03 0.00 80
20260507004714 6 226 0.0 6.4 0.00 0.03 0.00 76
20260507004214 6 229 3.2 12.9 0.00 0.03 0.00 75
20260507003714 7 180 4.8 17.7 0.00 0.03 0.00 74
20260507003214 8 122 9.7 22.5 0.00 0.03 0.00 69
20260507002714 10 91 17.7 17.7 0.00 0.03 0.00 59
20260507002214 10 132 11.3 11.3 0.00 0.03 0.00 61
20260507001714 10 233 1.6 19.3 0.00 0.03 0.00 61
20260507001214 10 9 3.2 25.7 0.00 0.03 0.00 61
20260507000714 10 334 9.7 27.4 0.00 0.03 0.00 49
20260507000214 11 293 1.6 20.9 0.00 0.03 0.00 45
20260506235714 11 104 3.2 35.4 0.00 0.03 0.00 46
20260506235214 11 313 12.9 32.2 0.00 0.03 0.00 46
20260506234714 12 146 0.0 14.5 0.00 0.03 0.00 46
20260506234214 12 213 3.2 12.9 0.00 0.03 0.00 45
20260506233714 12 313 11.3 12.9 0.00 0.03 0.00 44
20260506233214 13 329 0.0 11.3 0.00 0.03 0.00 44
20260506232714 12 22 4.8 16.1 0.00 0.03 0.00 46
20260506232214 11 326 8.0 30.6 0.00 0.03 0.00 47
20260506231714 12 9 3.2 27.4 0.00 0.03 0.00 48
20260506231214 11 347 1.6 19.3 0.00 0.03 0.00 50
20260506230714 11 30 3.2 20.9 0.00 0.03 0.00 52
20260506230214 11 358 14.5 20.9 0.00 0.03 0.00 54
20260506225714 11 320 8.0 25.7 0.00 0.03 0.00 55
20260506225214 11 319 16.1 22.5 0.00 0.03 0.00 46
20260506224714 14 293 3.2 12.9 0.00 0.03 0.00 37
20260506224655 14 71 1.6 14.5 0.00 0.03 0.00 36
20260506224214 14 71 1.6 14.5 0.00 0.03 0.00 36
20260506223714 14 188 4.8 14.5 0.00 0.03 0.00 37
20260506223214 13 292 1.6 40.2 0.00 0.03 0.00 37
20260506222714 15 316 6.4 20.9 0.00 0.03 0.00 35
20260506222214 15 50 6.4 12.9 0.00 0.03 0.00 34
20260506221714 15 237 9.7 16.1 0.00 0.03 0.00 35
20260506221214 14 302 4.8 25.7 0.00 0.03 0.00 35
20260506220714 13 291 4.8 25.7 0.00 0.03 0.00 39
20260506220214 12 291 6.4 25.7 0.00 0.03 0.00 40
20260506215714 12 298 9.7 38.6 0.00 0.03 0.00 38
20260506215214 14 323 17.7 27.4 0.00 0.03 0.00 34
20260506214714 15 300 9.7 29.0 0.00 0.03 0.00 32
20260506214214 16 74 1.6 19.3 0.00 0.03 0.00 32
20260506213714 15 329 6.4 25.7 0.00 0.03 0.00 32
20260506213214 15 302 14.5 19.3 0.00 0.03 0.00 34
20260506212714 15 319 3.2 20.9 0.00 0.03 0.00 32
20260506212214 16 77 3.2 19.3 0.00 0.03 0.00 36
20260506211714 16 343 8.0 27.4 0.00 0.03 0.00 30
20260506211214 15 37 4.8 25.7 0.00 0.03 0.00 35
20260506210714 14 307 12.9 35.4 0.00 0.03 0.00 35
20260506210214 15 289 6.4 32.2 0.00 0.03 0.00 34
20260506205916 15 316 19.3 30.6 0.00 0.03 0.00 34
20260506205714 15 316 19.3 30.6 0.00 0.03 0.00 34
20260506205214 15 329 8.0 16.1 0.00 0.03 0.00 39
20260506204714 13 320 14.5 24.1 0.00 0.03 0.00 40
20260506204214 14 299 16.1 27.4 0.00 0.03 0.00 42
20260506203714 14 299 22.5 25.7 0.00 0.03 0.00 39
20260506203214 13 323 12.9 27.4 0.00 0.03 0.00 40
20260506202714 13 306 16.1 20.9 0.00 0.03 0.00 41
20260506202214 13 116 9.7 17.7 0.00 0.03 0.00 43